SCP
0 0 0 0 0 0 0 0 0 0 0 0 0 0 0 0 0 0 0 0 0 0 0 -0 0 0 0 0 0 0 0 0 0 0 0 0 0 0 0 0 0 0 0 0 0 0 -0 0 -0 -0 0 -0 -0 -0
0 0 0 0 0 0 0 0 0 0 0 0 0 0 0 0 0 0 0 0 0 0 0 0 -0 -0 -0 0 0 0 0 0 0 0 0 0 0 0 0 0 0 0 0 0 0 0 -0 -0 -0 0 0 -0 -0 -0
0 0 0 0 0 0 0 0 0 0 0 0 0 0 0 0 0 0 0 0 0 0 0 0 0 0 0 0 0 0 0 0 0 0 0 0 0 0 0 0 0 0 0 0 -0 0 -0 -0 0 0 -0 -0 -0 -0
0 0 0 0 0 0 0 0 0 0 0 0 0 0 0 0 0 0 0 0 0 0 0 0 0 0 0 0 0 0 0 0 0 0 0 0 0 0 0 0 0 0 0 0 0 0 -0 0 0 -0 -0 -0 -0 -0
0 0 0 0 0 0 0 0 0 0 0 0 0 0 0 0 0 0 0 0 0 0 0 0 0 0 0 0 0 0 0 0 0 0 0 0 0 0 0 0 0 0 0 -0 0 -0 0 -0 -0 0 -0 -0 -0 0
0 0 0 0 0 0 0 0 0 0 0 0 0 0 0 0 0 0 0 0 0 0 0 0 0 0 0 0 0 0 0 0 0 0 0 0 0 0 0 0 0 0 0 0 0 0 -0 -0 -0 -0 -0 -0 0 0
0 0 0 0 0 0 0 0 0 0 0 0 0 0 0 0 0 0 0 0 0 0 0 0 0 0 0 0 0 0 0 0 0 0 0 0 0 0 0 0 0 0 -0 0 0 -0 -0 -0 -0 -0 -0 0 0 -0
0 0 0 0 0 0 0 0 0 0 0 0 0 0 0 0 0 0 0 0 0 0 0 0 0 0 0 0 0 0 0 0 0 0 0 0 0 0 0 0 0 0 -0 -0 -0 -0 -0 -0 -0 -0 0 -0 -0 0
0 0 0 0 0 0 0 0 0 0 0 0 0 0 0 0 0 0 0 0 0 0 0 0 0 0 0 0 0 0 0 0 0 0 0 0 0 0 0 0 0 0 0 -0 -0 -0 -0 -0 -0 -0 -0 0 0 0
0 0 0 0 0 0 0 0 0 0 0 0 0 0 0 0 0 0 0 0 0 0 0 0 0 0 0 0 0 0 0 0 0 0 0 0 0 0 0 0 0 0 -0 -0 -0 0 -0 -0 -0 -0 0 0 -0 0
0 0 0 0 0 0 0 0 0 0 0 0 0 0 0 0 0 0 0 0 0 0 0 0 0 -0 -0 0 0 0 0 0 0 0 0 0 0 0 0 0 0 0 -0 -0 -0 -0 -0 -0 -0 0 0 -0 -0 -0
0 0 0 0 0 0 0 0 0 0 0 0 0 0 0 0 0 0 0 0 0 0 0 0 0 0 0 0 0 0 0 0 -0 0 0 0 0 0 0 0 0 -0 -0 0 0 -0 -0 -0 -0 0 -0 0 0 -0
0 0 0 0 0 0 0 0 0 0 0 0 0 0 0 0 0 0 0 0 0 0 0 0 0 0 0 0 0 0 0 0 -0 -0 0 0 0 -0 0 0 -0 -0 0 0 0 -0 -0 -0 0 0 0 0 0 0
0 0 0 0 0 0 0 0 0 0 0 0 0 0 0 0 0 0 0 0 0 0 0 0 0 -0 0 0 0 0 0 -0 -0 -0 -0 -0 -0 0 0 -0 -0 -0 0 0 0 0 0 0 0 0 0 0 0 0
0 0 0 0 0 0 0 0 0 0 0 0 0 0 0 0 0 0 0 0 0 0 -0 0 0 0 0 0 0 0 0 0 -0 -0 -0 -0 0 0 0 -0 -0 0 0 0 0 0 0 0 0 0 0 0 0 0
0 0 0 -0 0 0 0 0 0 0 0 0 0 0 0 0 0 0 0 0 0 0 0 0 0 0 0 0 0 0 0 -0 -0 -0 -0 -0 0 0 -0 -0 -0 0 0 0 0 0 -0 0 0 0 0 0 0 0
0 0 0 0 0 0 0 0 0 0 0 0 0 0 0 0 0 0 0 0 0 0 0 0 0 0 0 0 0 0 0 0 0 -0 -0 0 0 0 -0 -0 -0 0 0 0 0 0 -0 0 0 0 0 0 0 0
0 0 0 0 0 0 0 0 0 0 0 0 0 0 0 0 0 0 0 0 0 0 0 0 0 0 0 0 -0 -0 -0 -0 -0 -0 -0 0 0 0 -0 -0 -0 0 0 0 0 -0 -0 0 0 0 0 0 0 0
0 0 0 0 0 0 0 0 0 0 0 0 0 0 0 0 0 0 0 0 0 0 0 0 0 0 0 0 0 0 -0 -0 -0 -0 -0 -0 0 0 -0 -0 -0 0 -0 -0 -0 -0 0 0 0 0 0 0 0 0
0 0 0 0 0 0 0 0 0 0 0 0 0 0 0 0 0 0 0 0 0 0 0 0 0 0 0 0 0 -0 -0 -0 -0 0 -0 -0 0 0 -0 -0 -0 -0 -0 -0 0 -0 -0 0 0 0 0 0 0 0
-0 -0 -0 -0 0 -0 0 0 0 0 0 0 0 0 0 0 0 0 -0 0 -0 0 0 0 -0 0 0 0 0 0 -0 -0 -0 0 -0 -0 -0 -0 -0 -0 -0 -0 -0 -0 -0 -0 -0 0 0 0 0 0 0 0
0 -0 0 0 -0 0 0 -0 -0 0 -0 0 -0 0 0 0 0 -0 -0 -0 -0 -0 -0 0 0 0 0 0 0 -0 -0 -0 -0 -0 -0 -0 -0 -0 -0 -0 -0 -0 -0 0 -0 0 -0 0 0 0 0 0 0 0
0 0 0 0 -0 -0 -0 0 -0 0 0 0 0 0 0 0 0 0 0 0 0 0 -0 -0 -0 -0 0 0 0 0 -0 0 0 -0 -0 0 -0 -0 -0 -0 -0 -0 -0 -0 0 0 0 0 0 0 0 0 0 0
0 0 0 -0 0 -0 -0 -0 -0 0 0 -0 0 0 0 0 0 0 0 0 0 0 0 0 -0 -0 0 -0 0 0 0 0 0 0 -0 -0 -0 -0 0 0 -0 -0 -0 -0 -0 -0 0 0 0 0 0 0 0 0
0 0 -0 0 0 0 0 -0 -0 0 0 0 0 0 0 0 0 0 0 0 0 0 0 0 0 0 0 0 0 0 0 0 -0 -0 0 0 0 0 0 0 0 0 -0 -0 -0 0 0 0 0 0 0 0 0 0
0 0 0 0 0 0 0 0 0 0 0 0 -0 -0 0 -0 0 0 0 0 0 0 0 0 0 0 0 0 0 0 0 -0 -0 -0 -0 -0 0 0 0 0 -0 -0 0 -0 -0 -0 0 0 0 0 0 0 0 0
0 0 0 0 0 0 0 0 -0 0 0 0 0 0 0 0 0 0 0 0 0 0 0 0 0 0 0 0 0 0 0 0 -0 -0 -0 -0 -0 -0 -0 0 0 0 -0 -0 0 -0 -0 -0 -0 0 0 0 0 0
0 0 0 0 0 0 -0 0 0 0 0 0 0 0 0 0 0 0 0 0 0 0 0 0 0 0 0 0 0 0 0 0 -0 -0 -0 -0 -0 -0 -0 -0 -0 -0 0 -0 -0 0 -0 -0 0 0 0 0 0 0
0 0 0 0 0 0 0 0 0 0 0 0 0 0 0 0 0 0 0 0 0 0 0 0 0 0 0 0 0 0 0 0 -0 -0 -0 -0 0 0 -0 -0 -0 -0 -0 -0 -0 -0 0 -0 0 0 0 0 0 0
0 0 0 0 0 0 0 0 0 0 0 0 0 0 0 0 0 0 0 0 0 0 0 0 0 0 0 0 0 0 0 0 -0 -0 -0 -0 -0 -0 -0 -0 -0 -0 -0 -0 -0 -0 -0 -0 0 -0 0 0 0 0
0 0 0 0 0 0 0 0 0 0 0 0 0 0 0 0 0 0 0 0 0 0 0 0 0 -0 -0 0 0 0 -0 -0 -0 -0 -0 -0 -0 -0 0 0 -0 0 -0 -0 -0 -0 -0 0 -0 -0 -0 -0 0 0
0 0 0 0 0 0 0 0 -0 0 0 0 0 0 0 0 0 0 0 0 0 0 -0 -0 -0 -0 -0 0 0 -0 -0 -0 -0 0 0 0 0 -0 -0 0 0 0 0 -0 -0 -0 -0 -0 -0 -0 -0 -0 0 -0
0 0 0 0 0 0 -0 0 0 0 0 0 0 0 0 0 0 0 0 0 0 0 0 0 0 0 0 0 0 0 -0 0 0 -0 -0 -0 -0 -0 -0 -0 0 0 0 0 0 0 -0 -0 0 0 -0 -0 -0 -0
Wind_Speed_500mb
47 49 49 50 50 43 44 41 40 37 35 31 27 23 22 21 20 20 17 20 19 22 58 47 28 31 41 34 10 23 20 14 18 13 13 13 17 15 23 35 29 25 14 17 14 10 14 54 54 19 19 46 48 59
61 61 60 60 53 42 39 37 36 35 33 30 27 22 18 21 21 22 18 14 25 28 49 64 71 51 51 43 44 24 17 22 9 7 11 9 19 20 28 16 24 9 12 9 9 15 47 58 47 48 39 49 60 63
61 63 60 56 44 37 37 33 33 33 32 31 29 28 27 29 28 25 23 21 31 36 53 35 31 20 20 29 29 28 24 19 12 4 6 5 11 16 17 25 29 17 32 12 28 27 37 57 46 44 61 55 52 64
40 45 48 43 35 33 34 32 32 32 31 30 29 29 31 33 32 30 25 22 27 19 11 12 22 36 32 31 37 37 33 30 25 17 9 6 6 17 18 26 32 31 35 24 35 39 43 42 45 52 55 47 67 72
40 38 35 33 31 31 32 33 33 31 31 31 30 29 29 31 32 31 32 21 27 17 14 50 61 21 10 15 15 31 50 44 29 8 6 7 13 16 23 22 25 30 7 7 7 40 25 33 54 50 53 65 66 70
34 34 34 31 30 33 33 33 32 31 31 31 31 30 29 30 31 25 10 21 17 11 16 10 33 29 17 25 25 33 34 34 19 11 9 12 31 15 7 10 28 36 31 34 18 31 39 58 45 48 61 62 62 68
33 34 34 32 31 33 33 32 31 31 31 32 32 32 30 29 28 14 12 8 14 7 12 17 17 5 11 21 26 19 13 16 18 9 13 20 40 23 6 14 32 41 45 40 34 48 48 35 47 58 60 59 55 43
30 32 32 34 32 31 33 33 32 31 30 29 29 30 30 30 34 29 10 17 26 14 11 7 11 29 5 16 18 17 17 17 16 11 9 18 26 15 9 22 38 28 36 36 42 39 37 46 52 59 57 52 47 31
29 34 35 34 33 31 31 30 29 28 26 24 26 26 30 21 13 15 21 13 14 15 10 11 11 11 12 23 19 13 13 6 12 9 10 10 8 9 16 23 22 28 30 42 40 40 38 48 55 53 51 49 39 22
37 36 34 33 31 29 28 26 25 22 19 18 18 11 13 6 8 7 6 8 15 14 16 18 33 19 31 26 11 12 9 8 6 13 13 9 10 21 20 16 22 26 34 31 39 42 49 53 51 52 46 42 31 17
31 30 27 26 25 26 24 23 19 14 6 7 10 1 6 14 6 12 11 12 15 10 16 21 36 21 28 12 10 9 9 7 6 4 7 7 4 10 26 24 23 30 27 29 31 37 44 44 46 46 43 36 23 14
28 26 26 26 26 25 23 21 16 9 14 16 21 24 12 9 12 8 8 12 12 10 17 23 29 36 16 10 8 8 7 7 11 14 7 2 6 15 24 29 29 29 28 30 34 40 43 40 40 38 34 27 22 27
25 26 27 27 26 25 22 21 19 14 10 7 6 9 11 15 7 13 18 14 10 16 17 17 13 11 14 14 10 7 8 11 22 7 4 5 13 24 22 27 28 26 31 33 35 37 40 33 35 32 30 29 35 42
23 23 26 25 24 22 20 20 15 7 2 8 13 10 11 13 15 21 23 13 8 15 6 11 16 11 11 12 9 9 9 7 7 9 3 8 24 24 26 28 25 27 32 33 35 35 36 32 33 32 28 27 35 41
25 27 27 23 17 16 16 17 15 13 9 12 14 10 17 30 35 16 19 10 9 22 24 9 13 16 13 14 9 8 7 4 3 4 4 23 26 23 23 27 23 25 29 33 38 34 31 30 28 30 31 34 48 57
24 23 21 20 19 16 11 6 11 16 11 12 16 21 28 19 20 23 23 23 17 19 10 10 11 8 8 7 6 7 5 5 5 4 19 20 17 18 20 22 21 23 28 28 35 30 28 26 26 27 31 41 49 54
22 17 17 13 8 12 12 10 15 15 14 13 17 36 40 41 37 39 28 31 19 17 9 9 8 10 7 6 8 3 7 5 11 20 18 14 13 16 16 15 16 20 23 28 33 25 29 25 25 34 45 45 51 60
25 17 23 12 13 10 16 18 10 11 16 28 30 35 39 42 42 42 34 26 20 20 22 21 26 25 18 24 6 10 14 8 11 10 11 11 11 11 11 10 12 17 19 23 28 25 24 25 29 35 48 56 53 42
21 22 17 13 12 11 8 14 17 12 20 32 40 43 42 40 38 36 33 31 26 26 23 22 11 14 18 32 24 24 6 10 15 10 10 12 5 3 9 7 10 13 15 20 24 26 23 24 24 33 50 52 58 58
23 16 10 11 11 8 8 9 14 13 17 22 27 34 38 37 35 32 34 33 31 33 31 21 22 36 34 23 17 9 14 11 11 16 13 4 6 1 7 5 5 9 12 18 20 21 22 25 25 34 48 55 51 44
12 13 10 9 11 16 12 10 11 17 22 34 34 31 25 29 32 36 38 34 35 35 28 35 38 35 33 32 29 19 16 11 12 13 15 4 12 3 6 4 6 6 10 11 19 22 27 29 26 33 50 59 49 41
12 13 16 18 11 10 14 19 15 18 27 33 38 34 30 30 32 33 31 37 40 40 42 38 33 32 36 37 29 24 17 13 7 9 15 4 15 10 5 7 3 4 7 11 11 16 20 22 24 26 46 57 55 56
5 8 11 10 9 8 15 16 11 12 8 14 15 11 11 14 20 17 16 29 43 42 36 37 34 34 33 29 26 28 16 15 12 13 7 5 11 10 7 8 6 7 8 9 11 16 15 21 28 31 42 59 56 52
8 5 7 8 15 10 12 9 13 12 11 13 6 7 9 10 11 8 8 17 32 23 23 26 31 26 28 30 38 27 15 14 14 5 13 19 15 13 10 8 7 8 7 17 14 17 20 23 25 31 35 49 59 59
3 8 7 10 11 9 11 19 24 14 18 20 12 7 6 8 5 7 12 16 13 21 25 27 27 35 38 40 28 21 16 18 8 14 17 20 17 19 17 11 10 10 13 17 17 18 15 21 18 22 31 38 49 58
9 13 14 11 14 10 6 7 6 7 6 5 8 7 4 3 5 8 6 8 9 5 16 25 29 28 34 24 22 16 14 12 20 20 25 18 15 20 19 15 12 11 9 11 16 19 21 19 19 19 18 26 32 37
8 11 22 25 20 13 13 16 16 8 8 6 4 4 5 7 7 5 14 9 8 2 11 18 10 24 36 31 28 26 18 22 17 23 26 18 15 12 18 16 15 15 15 13 16 17 24 20 24 22 22 22 23 26
18 11 7 11 9 7 7 7 6 6 4 5 10 6 6 6 4 15 12 2 4 4 27 30 31 30 33 35 34 25 20 20 25 27 27 17 16 17 14 16 13 12 16 15 15 19 21 23 25 26 19 21 25 18
19 20 15 16 10 7 6 8 7 6 8 7 5 4 6 9 22 23 15 9 13 27 36 33 41 44 45 42 35 33 28 27 27 23 23 23 22 17 10 13 16 13 5 7 12 16 19 23 21 22 27 22 20 20
31 25 20 13 7 7 6 6 16 28 29 28 14 7 11 23 28 39 30 23 24 24 31 40 38 35 31 29 26 23 21 20 20 19 17 17 15 13 16 9 19 15 11 9 13 13 9 13 28 27 23 22 21 23
13 9 12 14 10 13 17 29 41 24 3 13 15 21 25 28 42 40 33 31 35 43 46 43 37 33 33 31 25 23 23 19 14 8 3 5 4 6 10 10 15 18 16 15 17 11 10 14 18 26 25 22 24 24
19 14 7 4 7 12 25 2 3 4 8 9 13 18 24 20 16 33 35 32 34 36 34 30 30 32 28 25 24 24 21 17 17 13 14 16 4 20 18 16 16 14 22 18 12 7 4 4 9 26 27 27 20 24
13 12 9 4 5 3 4 5 4 6 9 3 4 21 29 30 17 14 23 28 28 23 23 24 24 24 24 22 22 19 15 19 24 22 17 15 17 12 8 17 14 15 21 21 25 21 19 14 8 19 28 27 25 23
Wind_Direction_500mb
274 276 280 284 290 289 297 303 308 313 312 311 314 324 335 327 318 319 299 298 272 265 287 289 293 285 288 281 260 290 330 29 317 326 308 342 316 330 318 317 311 308 300 298 302 283 281 354 339 348 296 311 319 311
268 269 272 271 278 281 288 296 302 304 304 303 304 306 308 326 313 306 318 297 302 275 274 291 290 271 260 258 263 259 246 305 296 313 322 322 310 301 311 300 323 310 315 286 263 279 308 304 322 331 338 315 312 310
265 263 267 268 267 270 281 291 297 299 301 303 303 302 303 306 314 317 299 300 301 295 300 305 292 303 244 243 241 241 262 245 227 282 355 292 284 317 298 297 302 306 310 287 295 284 295 305 320 321 322 314 314 312
269 267 267 261 258 269 279 287 290 294 298 302 305 303 301 301 306 309 302 290 294 287 287 294 320 301 282 259 236 232 242 259 263 257 221 236 246 281 281 291 292 288 297 279 281 290 330 310 314 313 316 317 315 315
259 260 256 255 263 272 279 284 287 290 291 296 302 305 303 305 310 310 300 273 267 265 294 298 302 303 304 239 246 243 235 255 247 175 202 232 252 270 271 280 270 275 269 282 269 308 308 305 311 323 322 321 320 317
258 256 254 258 267 275 278 282 285 288 289 291 295 299 303 302 306 333 316 186 225 284 298 311 307 306 284 228 243 240 236 237 208 194 224 241 248 255 265 277 286 302 337 338 313 324 318 312 317 321 320 323 325 320
258 258 260 265 270 276 280 283 287 287 286 289 293 297 301 300 293 255 269 269 240 281 278 299 295 292 247 252 260 250 223 227 219 225 227 253 264 244 233 259 281 325 307 316 325 331 322 321 321 321 328 330 330 327
257 261 265 269 271 274 279 282 284 284 286 289 292 295 294 289 284 286 278 272 240 269 253 272 271 281 202 279 245 231 199 190 219 239 254 254 276 220 259 275 302 303 322 322 326 326 320 323 323 331 335 335 337 335
277 276 270 268 270 273 275 278 280 283 288 291 290 291 287 272 239 226 266 267 209 247 276 235 264 292 307 312 322 281 214 209 224 220 222 237 237 234 251 285 314 332 338 325 327 328 332 330 329 334 338 343 346 349
273 266 263 264 265 269 273 277 282 289 288 284 280 244 217 108 191 319 283 214 207 223 231 250 256 250 294 318 307 308 206 233 232 225 202 225 247 33 51 0 339 340 333 336 334 340 337 332 339 340 346 347 352 6
261 259 261 260 265 267 269 273 279 288 227 255 248 5 24 340 285 240 214 216 186 227 224 250 239 248 266 265 294 287 306 264 269 147 235 225 75 334 355 352 341 339 341 341 340 336 344 346 346 344 349 357 13 54
254 254 259 263 264 263 263 264 259 229 294 291 290 314 298 246 241 235 223 212 205 239 192 222 219 219 243 222 250 255 266 285 260 155 205 71 311 351 350 344 343 344 350 351 349 350 351 356 354 351 2 21 55 87
254 250 258 260 259 258 258 255 255 256 250 272 264 241 211 218 215 226 218 213 218 216 208 212 229 222 211 203 221 258 249 246 291 248 45 12 358 349 20 343 347 354 356 357 354 356 357 8 355 14 29 59 83 93
249 256 267 258 255 257 254 248 243 203 206 231 225 237 230 204 221 215 240 292 201 276 178 203 231 257 227 189 207 241 243 291 273 13 32 305 319 7 358 347 355 360 359 359 2 2 12 7 13 37 50 79 90 91
249 257 259 250 246 249 249 232 217 192 240 235 236 235 226 247 269 264 263 248 277 202 226 279 295 277 270 254 242 247 254 253 151 335 275 326 356 21 359 352 5 0 0 6 8 10 21 12 35 51 71 87 96 96
245 251 260 238 233 226 203 189 208 207 225 233 240 259 269 286 277 299 309 307 254 268 272 279 257 250 262 254 243 260 282 273 19 0 348 331 0 21 3 1 2 0 4 14 8 29 25 30 49 67 91 108 111 106
227 216 251 212 222 209 211 227 227 221 234 232 242 245 263 274 279 279 266 275 280 272 270 286 267 235 255 227 221 238 306 40 16 356 332 335 15 19 3 6 9 5 11 22 12 42 36 55 71 87 101 107 112 107
218 234 236 209 185 221 225 227 255 246 242 246 265 263 265 264 265 270 271 267 272 271 270 266 274 274 265 280 287 198 283 22 17 344 342 347 23 21 12 26 20 12 23 30 29 46 45 66 74 99 110 120 117 107
215 227 230 184 173 234 229 214 218 260 252 254 255 258 259 263 265 264 264 265 263 262 263 258 251 255 256 261 302 349 336 357 14 351 357 10 46 28 21 37 22 28 41 39 42 46 58 65 84 116 115 121 113 109
215 205 188 163 180 252 250 239 211 253 273 268 272 264 260 259 261 256 253 246 240 239 243 244 246 253 276 330 318 327 345 350 357 350 317 9 170 100 28 44 23 49 50 49 55 53 76 81 88 119 131 119 106 97
204 221 186 210 231 236 278 270 241 253 267 267 271 273 267 259 257 258 250 243 235 230 237 239 243 251 275 288 289 305 298 326 327 325 338 14 164 166 91 104 47 70 59 57 62 58 72 98 106 123 131 123 110 112
231 154 207 196 237 238 245 238 243 280 280 269 276 273 265 263 257 249 250 245 234 237 239 236 242 244 247 259 273 248 268 286 308 302 337 166 152 160 162 120 126 104 88 80 71 79 69 98 113 128 140 134 120 112
121 183 229 219 229 255 262 249 240 255 264 301 310 259 280 289 280 275 263 247 246 241 236 235 233 234 245 258 257 267 260 267 255 286 334 163 178 154 152 141 140 148 146 112 104 111 86 80 123 128 142 140 129 123
222 257 250 230 208 258 261 234 232 258 271 255 263 265 266 251 262 223 236 251 247 245 241 241 231 229 240 242 249 253 238 219 223 264 159 166 142 141 137 138 123 138 145 139 123 112 122 94 104 132 140 146 138 130
183 236 223 253 255 241 261 260 240 232 256 278 294 267 292 326 277 249 235 259 249 235 221 209 214 220 218 225 211 213 206 187 219 190 173 173 141 131 139 121 115 131 150 143 138 138 131 134 126 115 145 157 162 152
218 218 202 238 212 212 248 298 346 333 320 275 250 269 317 270 258 256 322 338 294 231 193 204 202 201 228 179 175 179 146 153 167 161 156 143 154 158 155 141 126 128 137 160 145 150 148 154 153 144 134 149 157 163
249 252 214 234 255 260 270 300 325 301 270 266 301 274 230 229 231 260 297 296 287 254 213 226 206 178 139 156 144 128 134 118 163 160 146 128 124 157 194 174 162 145 134 137 159 164 162 152 156 154 153 143 151 164
247 278 270 284 279 295 312 313 265 259 274 297 317 257 297 340 309 324 326 303 242 138 122 118 111 129 135 118 114 107 93 112 113 122 118 114 105 120 123 129 151 123 137 130 124 161 159 159 168 160 166 171 171 172
243 245 267 276 310 300 256 240 246 248 279 290 286 285 301 329 3 27 72 112 99 103 97 112 119 113 104 102 106 88 86 109 106 113 122 138 141 147 150 117 138 166 133 134 128 139 159 165 162 168 161 166 159 160
245 248 252 258 238 243 257 234 278 289 306 302 290 328 48 65 56 64 85 87 99 130 116 101 102 97 98 94 85 75 73 97 96 91 100 96 116 138 171 155 148 166 169 148 147 151 147 143 171 171 164 172 176 162
253 238 248 251 264 297 301 291 293 305 117 111 72 80 87 88 66 61 59 76 82 81 83 82 82 81 81 84 83 80 66 58 72 77 189 190 136 178 171 153 164 170 197 196 170 154 163 175 178 184 186 184 187 185
247 257 302 290 275 274 295 267 71 91 196 215 191 153 107 76 64 49 53 63 70 72 74 78 79 73 74 74 67 65 68 69 49 41 43 23 14 210 202 187 172 182 182 191 229 233 260 222 201 189 195 195 198 201
257 257 241 257 240 189 133 106 71 52 50 55 72 102 90 82 72 70 58 57 68 72 70 70 76 76 67 66 64 59 50 24 28 28 41 39 38 57 128 182 190 197 196 192 194 207 202 223 204 191 192 201 205 205
Wind_Speed_850mb
47 49 49 50 50 43 44 41 40 37 35 31 27 23 22 21 20 20 17 20 19 22 58 47 28 31 41 34 10 23 20 14 18 13 13 13 17 15 23 35 29 25 14 17 14 10 14 54 54 19 19 46 48 59
61 61 60 60 53 42 39 37 36 35 33 30 27 22 18 21 21 22 18 14 25 28 49 64 71 51 51 43 44 24 17 22 9 7 11 9 19 20 28 16 24 9 12 9 9 15 47 58 47 48 39 49 60 63
61 63 60 56 44 37 37 33 33 33 32 31 29 28 27 29 28 25 23 21 31 36 53 35 31 20 20 29 29 28 24 19 12 4 6 5 11 16 17 25 29 17 32 12 28 27 37 57 46 44 61 55 52 64
40 45 48 43 35 33 34 32 32 32 31 30 29 29 31 33 32 30 25 22 27 19 11 12 22 36 32 31 37 37 33 30 25 17 9 6 6 17 18 26 32 31 35 24 35 39 43 42 45 52 55 47 67 72
40 38 35 33 31 31 32 33 33 31 31 31 30 29 29 31 32 31 32 21 27 17 14 50 61 21 10 15 15 31 50 44 29 8 6 7 13 16 23 22 25 30 7 7 7 40 25 33 54 50 53 65 66 70
34 34 34 31 30 33 33 33 32 31 31 31 31 30 29 30 31 25 10 21 17 11 16 10 33 29 17 25 25 33 34 34 19 11 9 12 31 15 7 10 28 36 31 34 18 31 39 58 45 48 61 62 62 68
33 34 34 32 31 33 33 32 31 31 31 32 32 32 30 29 28 14 12 8 14 7 12 17 17 5 11 21 26 19 13 16 18 9 13 20 40 23 6 14 32 41 45 40 34 48 48 35 47 58 60 59 55 43
30 32 32 34 32 31 33 33 32 31 30 29 29 30 30 30 34 29 10 17 26 14 11 7 11 29 5 16 18 17 17 17 16 11 9 18 26 15 9 22 38 28 36 36 42 39 37 46 52 59 57 52 47 31
29 34 35 34 33 31 31 30 29 28 26 24 26 26 30 21 13 15 21 13 14 15 10 11 11 11 12 23 19 13 13 6 12 9 10 10 8 9 16 23 22 28 30 42 40 40 38 48 55 53 51 49 39 22
37 36 34 33 31 29 28 26 25 22 19 18 18 11 13 6 8 7 6 8 15 14 16 18 33 19 31 26 11 12 9 8 6 13 13 9 10 21 20 16 22 26 34 31 39 42 49 53 51 52 46 42 31 17
31 30 27 26 25 26 24 23 19 14 6 7 10 1 6 14 6 12 11 12 15 10 16 21 36 21 28 12 10 9 9 7 6 4 7 7 4 10 26 24 23 30 27 29 31 37 44 44 46 46 43 36 23 14
28 26 26 26 26 25 23 21 16 9 14 16 21 24 12 9 12 8 8 12 12 10 17 23 29 36 16 10 8 8 7 7 11 14 7 2 6 15 24 29 29 29 28 30 34 40 43 40 40 38 34 27 22 27
25 26 27 27 26 25 22 21 19 14 10 7 6 9 11 15 7 13 18 14 10 16 17 17 13 11 14 14 10 7 8 11 22 7 4 5 13 24 22 27 28 26 31 33 35 37 40 33 35 32 30 29 35 42
23 23 26 25 24 22 20 20 15 7 2 8 13 10 11 13 15 21 23 13 8 15 6 11 16 11 11 12 9 9 9 7 7 9 3 8 24 24 26 28 25 27 32 33 35 35 36 32 33 32 28 27 35 41
25 27 27 23 17 16 16 17 15 13 9 12 14 10 17 30 35 16 19 10 9 22 24 9 13 16 13 14 9 8 7 4 3 4 4 23 26 23 23 27 23 25 29 33 38 34 31 30 28 30 31 34 48 57
24 23 21 20 19 16 11 6 11 16 11 12 16 21 28 19 20 23 23 23 17 19 10 10 11 8 8 7 6 7 5 5 5 4 19 20 17 18 20 22 21 23 28 28 35 30 28 26 26 27 31 41 49 54
22 17 17 13 8 12 12 10 15 15 14 13 17 36 40 41 37 39 28 31 19 17 9 9 8 10 7 6 8 3 7 5 11 20 18 14 13 16 16 15 16 20 23 28 33 25 29 25 25 34 45 45 51 60
25 17 23 12 13 10 16 18 10 11 16 28 30 35 39 42 42 42 34 26 20 20 22 21 26 25 18 24 6 10 14 8 11 10 11 11 11 11 11 10 12 17 19 23 28 25 24 25 29 35 48 56 53 42
21 22 17 13 12 11 8 14 17 12 20 32 40 43 42 40 38 36 33 31 26 26 23 22 11 14 18 32 24 24 6 10 15 10 10 12 5 3 9 7 10 13 15 20 24 26 23 24 24 33 50 52 58 58
23 16 10 11 11 8 8 9 14 13 17 22 27 34 38 37 35 32 34 33 31 33 31 21 22 36 34 23 17 9 14 11 11 16 13 4 6 1 7 5 5 9 12 18 20 21 22 25 25 34 48 55 51 44
12 13 10 9 11 16 12 10 11 17 22 34 34 31 25 29 32 36 38 34 35 35 28 35 38 35 33 32 29 19 16 11 12 13 15 4 12 3 6 4 6 6 10 11 19 22 27 29 26 33 50 59 49 41
12 13 16 18 11 10 14 19 15 18 27 33 38 34 30 30 32 33 31 37 40 40 42 38 33 32 36 37 29 24 17 13 7 9 15 4 15 10 5 7 3 4 7 11 11 16 20 22 24 26 46 57 55 56
5 8 11 10 9 8 15 16 11 12 8 14 15 11 11 14 20 17 16 29 43 42 36 37 34 34 33 29 26 28 16 15 12 13 7 5 11 10 7 8 6 7 8 9 11 16 15 21 28 31 42 59 56 52
8 5 7 8 15 10 12 9 13 12 11 13 6 7 9 10 11 8 8 17 32 23 23 26 31 26 28 30 38 27 15 14 14 5 13 19 15 13 10 8 7 8 7 17 14 17 20 23 25 31 35 49 59 59
3 8 7 10 11 9 11 19 24 14 18 20 12 7 6 8 5 7 12 16 13 21 25 27 27 35 38 40 28 21 16 18 8 14 17 20 17 19 17 11 10 10 13 17 17 18 15 21 18 22 31 38 49 58
9 13 14 11 14 10 6 7 6 7 6 5 8 7 4 3 5 8 6 8 9 5 16 25 29 28 34 24 22 16 14 12 20 20 25 18 15 20 19 15 12 11 9 11 16 19 21 19 19 19 18 26 32 37
8 11 22 25 20 13 13 16 16 8 8 6 4 4 5 7 7 5 14 9 8 2 11 18 10 24 36 31 28 26 18 22 17 23 26 18 15 12 18 16 15 15 15 13 16 17 24 20 24 22 22 22 23 26
18 11 7 11 9 7 7 7 6 6 4 5 10 6 6 6 4 15 12 2 4 4 27 30 31 30 33 35 34 25 20 20 25 27 27 17 16 17 14 16 13 12 16 15 15 19 21 23 25 26 19 21 25 18
19 20 15 16 10 7 6 8 7 6 8 7 5 4 6 9 22 23 15 9 13 27 36 33 41 44 45 42 35 33 28 27 27 23 23 23 22 17 10 13 16 13 5 7 12 16 19 23 21 22 27 22 20 20
31 25 20 13 7 7 6 6 16 28 29 28 14 7 11 23 28 39 30 23 24 24 31 40 38 35 31 29 26 23 21 20 20 19 17 17 15 13 16 9 19 15 11 9 13 13 9 13 28 27 23 22 21 23
13 9 12 14 10 13 17 29 41 24 3 13 15 21 25 28 42 40 33 31 35 43 46 43 37 33 33 31 25 23 23 19 14 8 3 5 4 6 10 10 15 18 16 15 17 11 10 14 18 26 25 22 24 24
19 14 7 4 7 12 25 2 3 4 8 9 13 18 24 20 16 33 35 32 34 36 34 30 30 32 28 25 24 24 21 17 17 13 14 16 4 20 18 16 16 14 22 18 12 7 4 4 9 26 27 27 20 24
13 12 9 4 5 3 4 5 4 6 9 3 4 21 29 30 17 14 23 28 28 23 23 24 24 24 24 22 22 19 15 19 24 22 17 15 17 12 8 17 14 15 21 21 25 21 19 14 8 19 28 27 25 23
Wind_Direction_850mb
274 276 280 284 290 289 297 303 308 313 312 311 314 324 335 327 318 319 299 298 272 265 287 289 293 285 288 281 260 290 330 29 317 326 308 342 316 330 318 317 311 308 300 298 302 283 281 354 339 348 296 311 319 311
268 269 272 271 278 281 288 296 302 304 304 303 304 306 308 326 313 306 318 297 302 275 274 291 290 271 260 258 263 259 246 305 296 313 322 322 310 301 311 300 323 310 315 286 263 279 308 304 322 331 338 315 312 310
265 263 267 268 267 270 281 291 297 299 301 303 303 302 303 306 314 317 299 300 301 295 300 305 292 303 244 243 241 241 262 245 227 282 355 292 284 317 298 297 302 306 310 287 295 284 295 305 320 321 322 314 314 312
269 267 267 261 258 269 279 287 290 294 298 302 305 303 301 301 306 309 302 290 294 287 287 294 320 301 282 259 236 232 242 259 263 257 221 236 246 281 281 291 292 288 297 279 281 290 330 310 314 313 316 317 315 315
259 260 256 255 263 272 279 284 287 290 291 296 302 305 303 305 310 310 300 273 267 265 294 298 302 303 304 239 246 243 235 255 247 175 202 232 252 270 271 280 270 275 269 282 269 308 308 305 311 323 322 321 320 317
258 256 254 258 267 275 278 282 285 288 289 291 295 299 303 302 306 333 316 186 225 284 298 311 307 306 284 228 243 240 236 237 208 194 224 241 248 255 265 277 286 302 337 338 313 324 318 312 317 321 320 323 325 320
258 258 260 265 270 276 280 283 287 287 286 289 293 297 301 300 293 255 269 269 240 281 278 299 295 292 247 252 260 250 223 227 219 225 227 253 264 244 233 259 281 325 307 316 325 331 322 321 321 321 328 330 330 327
257 261 265 269 271 274 279 282 284 284 286 289 292 295 294 289 284 286 278 272 240 269 253 272 271 281 202 279 245 231 199 190 219 239 254 254 276 220 259 275 302 303 322 322 326 326 320 323 323 331 335 335 337 335
277 276 270 268 270 273 275 278 280 283 288 291 290 291 287 272 239 226 266 267 209 247 276 235 264 292 307 312 322 281 214 209 224 220 222 237 237 234 251 285 314 332 338 325 327 328 332 330 329 334 338 343 346 349
273 266 263 264 265 269 273 277 282 289 288 284 280 244 217 108 191 319 283 214 207 223 231 250 256 250 294 318 307 308 206 233 232 225 202 225 247 33 51 0 339 340 333 336 334 340 337 332 339 340 346 347 352 6
261 259 261 260 265 267 269 273 279 288 227 255 248 5 24 340 285 240 214 216 186 227 224 250 239 248 266 265 294 287 306 264 269 147 235 225 75 334 355 352 341 339 341 341 340 336 344 346 346 344 349 357 13 54
254 254 259 263 264 263 263 264 259 229 294 291 290 314 298 246 241 235 223 212 205 239 192 222 219 219 243 222 250 255 266 285 260 155 205 71 311 351 350 344 343 344 350 351 349 350 351 356 354 351 2 21 55 87
254 250 258 260 259 258 258 255 255 256 250 272 264 241 211 218 215 226 218 213 218 216 208 212 229 222 211 203 221 258 249 246 291 248 45 12 358 349 20 343 347 354 356 357 354 356 357 8 355 14 29 59 83 93
249 256 267 258 255 257 254 248 243 203 206 231 225 237 230 204 221 215 240 292 201 276 178 203 231 257 227 189 207 241 243 291 273 13 32 305 319 7 358 347 355 360 359 359 2 2 12 7 13 37 50 79 90 91
249 257 259 250 246 249 249 232 217 192 240 235 236 235 226 247 269 264 263 248 277 202 226 279 295 277 270 254 242 247 254 253 151 335 275 326 356 21 359 352 5 0 0 6 8 10 21 12 35 51 71 87 96 96
245 251 260 238 233 226 203 189 208 207 225 233 240 259 269 286 277 299 309 307 254 268 272 279 257 250 262 254 243 260 282 273 19 0 348 331 0 21 3 1 2 0 4 14 8 29 25 30 49 67 91 108 111 106
227 216 251 212 222 209 211 227 227 221 234 232 242 245 263 274 279 279 266 275 280 272 270 286 267 235 255 227 221 238 306 40 16 356 332 335 15 19 3 6 9 5 11 22 12 42 36 55 71 87 101 107 112 107
218 234 236 209 185 221 225 227 255 246 242 246 265 263 265 264 265 270 271 267 272 271 270 266 274 274 265 280 287 198 283 22 17 344 342 347 23 21 12 26 20 12 23 30 29 46 45 66 74 99 110 120 117 107
215 227 230 184 173 234 229 214 218 260 252 254 255 258 259 263 265 264 264 265 263 262 263 258 251 255 256 261 302 349 336 357 14 351 357 10 46 28 21 37 22 28 41 39 42 46 58 65 84 116 115 121 113 109
215 205 188 163 180 252 250 239 211 253 273 268 272 264 260 259 261 256 253 246 240 239 243 244 246 253 276 330 318 327 345 350 357 350 317 9 170 100 28 44 23 49 50 49 55 53 76 81 88 119 131 119 106 97
204 221 186 210 231 236 278 270 241 253 267 267 271 273 267 259 257 258 250 243 235 230 237 239 243 251 275 288 289 305 298 326 327 325 338 14 164 166 91 104 47 70 59 57 62 58 72 98 106 123 131 123 110 112
231 154 207 196 237 238 245 238 243 280 280 269 276 273 265 263 257 249 250 245 234 237 239 236 242 244 247 259 273 248 268 286 308 302 337 166 152 160 162 120 126 104 88 80 71 79 69 98 113 128 140 134 120 112
121 183 229 219 229 255 262 249 240 255 264 301 310 259 280 289 280 275 263 247 246 241 236 235 233 234 245 258 257 267 260 267 255 286 334 163 178 154 152 141 140 148 146 112 104 111 86 80 123 128 142 140 129 123
222 257 250 230 208 258 261 234 232 258 271 255 263 265 266 251 262 223 236 251 247 245 241 241 231 229 240 242 249 253 238 219 223 264 159 166 142 141 137 138 123 138 145 139 123 112 122 94 104 132 140 146 138 130
183 236 223 253 255 241 261 260 240 232 256 278 294 267 292 326 277 249 235 259 249 235 221 209 214 220 218 225 211 213 206 187 219 190 173 173 141 131 139 121 115 131 150 143 138 138 131 134 126 115 145 157 162 152
218 218 202 238 212 212 248 298 346 333 320 275 250 269 317 270 258 256 322 338 294 231 193 204 202 201 228 179 175 179 146 153 167 161 156 143 154 158 155 141 126 128 137 160 145 150 148 154 153 144 134 149 157 163
249 252 214 234 255 260 270 300 325 301 270 266 301 274 230 229 231 260 297 296 287 254 213 226 206 178 139 156 144 128 134 118 163 160 146 128 124 157 194 174 162 145 134 137 159 164 162 152 156 154 153 143 151 164
247 278 270 284 279 295 312 313 265 259 274 297 317 257 297 340 309 324 326 303 242 138 122 118 111 129 135 118 114 107 93 112 113 122 118 114 105 120 123 129 151 123 137 130 124 161 159 159 168 160 166 171 171 172
243 245 267 276 310 300 256 240 246 248 279 290 286 285 301 329 3 27 72 112 99 103 97 112 119 113 104 102 106 88 86 109 106 113 122 138 141 147 150 117 138 166 133 134 128 139 159 165 162 168 161 166 159 160
245 248 252 258 238 243 257 234 278 289 306 302 290 328 48 65 56 64 85 87 99 130 116 101 102 97 98 94 85 75 73 97 96 91 100 96 116 138 171 155 148 166 169 148 147 151 147 143 171 171 164 172 176 162
253 238 248 251 264 297 301 291 293 305 117 111 72 80 87 88 66 61 59 76 82 81 83 82 82 81 81 84 83 80 66 58 72 77 189 190 136 178 171 153 164 170 197 196 170 154 163 175 178 184 186 184 187 185
247 257 302 290 275 274 295 267 71 91 196 215 191 153 107 76 64 49 53 63 70 72 74 78 79 73 74 74 67 65 68 69 49 41 43 23 14 210 202 187 172 182 182 191 229 233 260 222 201 189 195 195 198 201
257 257 241 257 240 189 133 106 71 52 50 55 72 102 90 82 72 70 58 57 68 72 70 70 76 76 67 66 64 59 50 24 28 28 41 39 38 57 128 182 190 197 196 192 194 207 202 223 204 191 192 201 205 205